Tracking 35331 objects as of 14-Sep-2026
HD Live streaming from Space Station
objects crossing your sky now

FREGAT DEB


10-day predictions


NORAD ID: 46009
Int'l Code: 2011-037HL
Launch date: July 18, 2011
Source: Commonwealth of Independent States (former USSR) (CIS)
Launch site: TYURATAM MISSILE AND SPACE COMPLEX (TTMTR)

Note: This is SATELLITE DEBRIS
Your satellite tracking list
Your tracking list is empty




NASA's NSSDC Master Catalog

Two Line Element Set (TLE):
1 46009U 11037HL  22013.75556928  .00389937  00000-0  22860-1 0  9994
2 46009  51.4383 190.9800 1270885 191.6751 165.1853 12.84509858 63102
Source of the keplerian elements: AFSPC